This demonstration page uses our WeatherBlox Daily Observations layout. Learn more.

Left ArrowRight Arrow

53.62937, 11.41316

Hourly Observations for May 15, 2016

Temp ( °F °C ) Dew Point ( °F °C ) Humidity (%) Winds ( mph kmh ) Pressure ( in mb ) Visibility ( mi km ) Precip ( " mm )
6:20 am 06:20 Mostly Sunny 41 5 39 4 93 93 W 9 15 29.83 1010 30 48 N/A
6:50 am 06:50 Partly Cloudy 41 5 39 4 93 93 W 10 17 29.83 1010 30 48 N/A
7:20 am 07:20 Partly Cloudy 43 6 41 5 93 93 W 13 20 29.83 1010 30 48 N/A
7:50 am 07:50 Partly Cloudy 45 7 41 5 87 87 W 13 20 29.83 1010 30 48 N/A
8:20 am 08:20 Mostly Cloudy 45 7 41 5 87 87 W 15 24 29.83 1010 30 48 N/A
8:50 am 08:50 Mostly Cloudy 46 8 41 5 82 82 W 15 24 29.83 1010 30 48 N/A
9:20 am 09:20 Mostly Cloudy 46 8 41 5 82 82 W 14 22 29.83 1010 30 48 N/A
9:50 am 09:50 Mostly Cloudy 48 9 41 5 76 76 W 17 28 29.83 1010 30 48 N/A
10:20 am 10:20 Mostly Cloudy 48 9 43 6 82 82 WSW 18 30 29.83 1010 30 48 N/A
10:50 am 10:50 Mostly Cloudy with Light Rain 46 8 41 5 82 82 WSW 18 30 29.83 1010 30 48 N/A
10:52 am 10:52 Mostly Cloudy with Light Rain 46 8 41 5 82 82 W 14 22 29.83 1010 30 48 N/A
11:20 am 11:20 Mostly Cloudy with Light Rain 46 8 41 5 82 82 WSW 16 26 29.83 1010 30 48 N/A
11:50 am 11:50 Mostly Cloudy 48 9 41 5 76 76 W 16 26 29.83 1010 30 48 N/A
12:20 pm 12:20 Partly Cloudy with Light Rain 48 9 37 3 66 66 W 15 24 29.83 1010 30 48 N/A
12:50 pm 12:50 Mostly Cloudy 54 12 41 5 63 63 WSW 15 24 29.83 1010 30 48 N/A
1:20 pm 13:20 Mostly Cloudy 50 10 37 3 62 62 WSW 24 39 29.85 1011 30 48 N/A
1:50 pm 13:50 Mostly Cloudy 50 10 39 4 67 67 W 15 24 29.85 1011 30 48 N/A
2:20 pm 14:20 Partly Cloudy 54 12 37 3 54 54 W 18 30 29.85 1011 30 48 N/A
2:50 pm 14:50 Mostly Cloudy 52 11 39 4 62 62 WSW 18 30 29.85 1011 30 48 N/A
3:20 pm 15:20 Mostly Cloudy 52 11 37 3 58 58 W 21 33 29.85 1011 30 48 N/A
3:50 pm 15:50 Mostly Cloudy 48 9 43 6 82 82 NW 8 13 29.88 1012 30 48 N/A
4:20 pm 16:20 Partly Cloudy 50 10 39 4 67 67 WNW 8 13 29.85 1011 30 48 N/A
4:50 pm 16:50 Mostly Sunny 52 11 37 3 58 58 W 14 22 29.85 1011 30 48 N/A
5:20 pm 17:20 Partly Cloudy with Showers Nearby 54 12 37 3 54 54 W 9 15 29.85 1011 30 48 N/A
5:50 pm 17:50 Mostly Cloudy with Showers Nearby 48 9 41 5 76 76 W 15 24 29.85 1011 30 48 N/A
6:20 pm 18:20 Mostly Cloudy 48 9 41 5 76 76 WNW 7 11 29.88 1012 30 48 N/A
6:50 pm 18:50 Mostly Cloudy with Showers Nearby 46 8 41 5 82 82 NW 3 6 29.88 1012 30 48 N/A

Powered by AerisWeather